Time,TemperatureF,DewpointF,PressureIn,WindDirection,WindDirectionDegrees,WindSpeedMPH,WindSpeedGustMPH,Humidity,HourlyPrecipIn,Conditions,Clouds,dailyrainin,SoftwareType,DateUTC
2013-11-05 00:07:00,25.0,16.0,30.73,North,359,0.0,1.0,67,0.00,,,0.00,weatherlink.com 1.10,2013-11-05 05:07:00,
2013-11-05 00:24:00,24.7,16.0,30.73,North,353,0.0,1.0,70,0.00,,,0.00,weatherlink.com 1.10,2013-11-05 05:24:00,
2013-11-05 00:40:00,24.6,16.0,30.73,NW,308,0.0,1.0,70,0.00,,,0.00,weatherlink.com 1.10,2013-11-05 05:40:00,
2013-11-05 01:00:00,24.9,16.0,30.73,NW,310,0.0,1.0,68,0.00,,,0.00,weatherlink.com 1.10,2013-11-05 06:00:00,
2013-11-05 01:16:00,25.4,18.0,30.72,NNW,332,0.0,1.0,72,0.00,,,0.00,weatherlink.com 1.10,2013-11-05 06:16:00,
2013-11-05 01:33:00,25.5,17.0,30.73,NNW,332,0.0,1.0,69,0.00,,,0.00,weatherlink.com 1.10,2013-11-05 06:33:00,
2013-11-05 01:49:00,25.4,17.0,30.73,WNW,289,0.0,1.0,70,0.00,,,0.00,weatherlink.com 1.10,2013-11-05 06:49:00,
2013-11-05 02:05:00,25.8,17.0,30.72,WNW,289,0.0,1.0,69,0.00,,,0.00,weatherlink.com 1.10,2013-11-05 07:05:00,
2013-11-05 02:21:00,26.6,16.0,30.73,WNW,289,0.0,1.0,65,0.00,,,0.00,weatherlink.com 1.10,2013-11-05 07:21:00,
2013-11-05 02:38:00,27.4,16.0,30.72,North,353,1.0,1.0,62,0.00,,,0.00,weatherlink.com 1.10,2013-11-05 07:38:00,
2013-11-05 02:54:00,27.1,16.0,30.71,North,8,0.0,1.0,62,0.00,,,0.00,weatherlink.com 1.10,2013-11-05 07:54:00,
2013-11-05 03:10:00,26.3,16.0,30.71,NW,324,0.0,1.0,65,0.00,,,0.00,weatherlink.com 1.10,2013-11-05 08:10:00,
2013-11-05 03:26:00,26.7,17.0,30.71,NW,314,0.0,0.0,65,0.00,,,0.00,weatherlink.com 1.10,2013-11-05 08:26:00,
2013-11-05 03:43:00,26.6,17.0,30.72,NW,323,0.0,1.0,67,0.00,,,0.00,weatherlink.com 1.10,2013-11-05 08:43:00,
2013-11-05 03:59:00,27.2,17.0,30.71,NW,325,0.0,1.0,66,0.00,,,0.00,weatherlink.com 1.10,2013-11-05 08:59:00,
2013-11-05 04:15:00,26.8,18.0,30.70,NW,326,0.0,1.0,69,0.00,,,0.00,weatherlink.com 1.10,2013-11-05 09:15:00,
2013-11-05 04:32:00,26.6,17.0,30.71,WNW,285,0.0,1.0,68,0.00,,,0.00,weatherlink.com 1.10,2013-11-05 09:32:00,
2013-11-05 04:48:00,26.7,18.0,30.71,WNW,286,0.0,1.0,69,0.00,,,0.00,weatherlink.com 1.10,2013-11-05 09:48:00,
2013-11-05 05:04:00,26.5,18.0,30.72,WNW,285,0.0,0.0,70,0.00,,,0.00,weatherlink.com 1.10,2013-11-05 10:04:00,
2013-11-05 05:20:00,26.6,18.0,30.72,WNW,298,0.0,1.0,71,0.00,,,0.00,weatherlink.com 1.10,2013-11-05 10:20:00,
2013-11-05 05:37:00,27.7,19.0,30.71,NW,317,0.0,1.0,70,0.00,,,0.00,weatherlink.com 1.10,2013-11-05 10:37:00,
2013-11-05 05:53:00,27.4,19.0,30.71,NW,305,0.0,1.0,69,0.00,,,0.00,weatherlink.com 1.10,2013-11-05 10:53:00,
2013-11-05 06:09:00,27.1,21.0,30.71,NW,305,0.0,1.0,76,0.00,,,0.00,weatherlink.com 1.10,2013-11-05 11:09:00,
2013-11-05 06:26:00,26.8,18.0,30.71,West,268,0.0,0.0,70,0.00,,,0.00,weatherlink.com 1.10,2013-11-05 11:26:00,
2013-11-05 06:42:00,26.7,18.0,30.72,West,268,0.0,1.0,69,0.00,,,0.00,weatherlink.com 1.10,2013-11-05 11:42:00,
2013-11-05 06:58:00,27.3,18.0,30.72,SW,221,0.0,2.0,69,0.00,,,0.00,weatherlink.com 1.10,2013-11-05 11:58:00,
2013-11-05 07:14:00,28.3,20.0,30.72,West,273,0.0,1.0,71,0.00,,,0.00,weatherlink.com 1.10,2013-11-05 12:14:00,
2013-11-05 07:31:00,28.3,20.0,30.72,West,273,0.0,0.0,70,0.00,,,0.00,weatherlink.com 1.10,2013-11-05 12:31:00,
2013-11-05 07:47:00,29.0,21.0,30.71,West,272,0.0,1.0,73,0.00,,,0.00,weatherlink.com 1.10,2013-11-05 12:47:00,
2013-11-05 08:03:00,29.5,21.0,30.71,West,264,0.0,1.0,70,0.00,,,0.00,weatherlink.com 1.10,2013-11-05 13:03:00,
2013-11-05 08:19:00,30.2,22.0,30.71,WNW,295,0.0,0.0,71,0.00,,,0.00,weatherlink.com 1.10,2013-11-05 13:19:00,
2013-11-05 08:36:00,31.1,22.0,30.71,WNW,286,0.0,2.0,69,0.00,,,0.00,weatherlink.com 1.10,2013-11-05 13:36:00,
2013-11-05 08:52:00,31.7,22.0,30.71,WNW,291,0.0,1.0,68,0.00,,,0.00,weatherlink.com 1.10,2013-11-05 13:52:00,
2013-11-05 09:08:00,31.8,22.0,30.72,WNW,289,0.0,1.0,68,0.00,,,0.00,weatherlink.com 1.10,2013-11-05 14:08:00,
2013-11-05 09:24:00,32.0,23.0,30.71,WNW,289,0.0,1.0,69,0.00,,,0.00,weatherlink.com 1.10,2013-11-05 14:24:00,
2013-11-05 09:41:00,32.8,24.0,30.71,NNW,348,1.0,1.0,69,0.00,,,0.00,weatherlink.com 1.10,2013-11-05 14:41:00,
2013-11-05 09:57:00,34.1,24.0,30.70,NNW,335,0.0,2.0,65,0.00,,,0.00,weatherlink.com 1.10,2013-11-05 14:57:00,
2013-11-05 10:13:00,35.6,24.0,30.69,WNW,283,2.0,3.0,63,0.00,,,0.00,weatherlink.com 1.10,2013-11-05 15:13:00,
2013-11-05 10:29:00,36.3,25.0,30.69,West,276,5.0,5.0,64,0.00,,,0.00,weatherlink.com 1.10,2013-11-05 15:29:00,
2013-11-05 10:46:00,37.5,26.0,30.68,NW,311,0.0,4.0,63,0.00,,,0.00,weatherlink.com 1.10,2013-11-05 15:46:00,
2013-11-05 11:02:00,38.9,29.0,30.68,West,265,1.0,4.0,67,0.00,,,0.00,weatherlink.com 1.10,2013-11-05 16:02:00,
2013-11-05 11:18:00,40.1,30.0,30.68,NNE,13,1.0,10.0,66,0.00,,,0.00,weatherlink.com 1.10,2013-11-05 16:18:00,
2013-11-05 11:35:00,40.8,30.0,30.67,WNW,284,1.0,10.0,65,0.00,,,0.00,weatherlink.com 1.10,2013-11-05 16:35:00,
2013-11-05 11:51:00,41.4,31.0,30.66,West,279,0.0,5.0,65,0.00,,,0.00,weatherlink.com 1.10,2013-11-05 16:51:00,
2013-11-05 12:07:00,42.2,30.0,30.65,WSW,248,2.0,6.0,63,0.00,,,0.00,weatherlink.com 1.10,2013-11-05 17:07:00,
2013-11-05 12:24:00,43.0,31.0,30.65,West,274,2.0,8.0,62,0.00,,,0.00,weatherlink.com 1.10,2013-11-05 17:24:00,
2013-11-05 12:40:00,43.2,30.0,30.64,West,260,7.0,8.0,60,0.00,,,0.00,weatherlink.com 1.10,2013-11-05 17:40:00,
2013-11-05 12:56:00,43.9,30.0,30.63,NW,306,4.0,5.0,59,0.00,,,0.00,weatherlink.com 1.10,2013-11-05 17:56:00,
2013-11-05 13:12:00,44.9,31.0,30.62,SW,227,2.0,4.0,57,0.00,,,0.00,weatherlink.com 1.10,2013-11-05 18:12:00,
2013-11-05 13:29:00,45.9,30.0,30.62,WSW,253,2.0,7.0,54,0.00,,,0.00,weatherlink.com 1.10,2013-11-05 18:29:00,
2013-11-05 13:45:00,46.4,31.0,30.61,WNW,289,1.0,3.0,55,0.00,,,0.00,weatherlink.com 1.10,2013-11-05 18:45:00,
2013-11-05 14:01:00,46.4,31.0,30.61,WNW,291,0.0,7.0,55,0.00,,,0.00,weatherlink.com 1.10,2013-11-05 19:01:00,
2013-11-05 14:17:00,47.2,31.0,30.60,West,279,1.0,4.0,54,0.00,,,0.00,weatherlink.com 1.10,2013-11-05 19:17:00,
2013-11-05 14:34:00,47.5,31.0,30.60,WSW,254,1.0,4.0,53,0.00,,,0.00,weatherlink.com 1.10,2013-11-05 19:34:00,
2013-11-05 14:50:00,45.4,30.0,30.59,West,272,1.0,4.0,55,0.00,,,0.00,weatherlink.com 1.10,2013-11-05 19:50:00,
2013-11-05 15:06:00,44.4,31.0,30.59,NW,305,0.0,2.0,59,0.00,,,0.00,weatherlink.com 1.10,2013-11-05 20:06:00,
2013-11-05 15:22:00,46.1,31.0,30.59,NW,326,0.0,3.0,56,0.00,,,0.00,weatherlink.com 1.10,2013-11-05 20:22:00,
2013-11-05 15:39:00,46.8,31.0,30.59,NW,324,1.0,3.0,54,0.00,,,0.00,weatherlink.com 1.10,2013-11-05 20:39:00,
2013-11-05 15:55:00,45.9,31.0,30.58,West,272,0.0,2.0,56,0.00,,,0.00,weatherlink.com 1.10,2013-11-05 20:55:00,
2013-11-05 16:11:00,43.3,30.0,30.58,West,267,0.0,3.0,60,0.00,,,0.00,weatherlink.com 1.10,2013-11-05 21:11:00,
2013-11-05 16:28:00,40.9,30.0,30.58,NW,326,0.0,1.0,66,0.00,,,0.00,weatherlink.com 1.10,2013-11-05 21:28:00,
2013-11-05 16:44:00,39.1,30.0,30.59,NNE,29,0.0,2.0,69,0.00,,,0.00,weatherlink.com 1.10,2013-11-05 21:44:00,
2013-11-05 17:00:00,38.8,30.0,30.59,NW,322,0.0,2.0,70,0.00,,,0.00,weatherlink.com 1.10,2013-11-05 22:00:00,
2013-11-05 17:16:00,39.3,30.0,30.58,NW,322,0.0,1.0,69,0.00,,,0.00,weatherlink.com 1.10,2013-11-05 22:16:00,
2013-11-05 17:33:00,39.2,31.0,30.58,WNW,283,0.0,1.0,71,0.00,,,0.00,weatherlink.com 1.10,2013-11-05 22:33:00,
2013-11-05 17:49:00,38.8,31.0,30.58,WNW,283,0.0,1.0,72,0.00,,,0.00,weatherlink.com 1.10,2013-11-05 22:49:00,
2013-11-05 18:05:00,38.4,30.0,30.58,NW,320,0.0,1.0,73,0.00,,,0.00,weatherlink.com 1.10,2013-11-05 23:05:00,
2013-11-05 18:21:00,38.3,31.0,30.58,NW,308,0.0,2.0,75,0.00,,,0.00,weatherlink.com 1.10,2013-11-05 23:21:00,
2013-11-05 18:37:00,39.2,33.0,30.58,NNE,25,0.0,3.0,77,0.00,,,0.00,weatherlink.com 1.10,2013-11-05 23:37:00,
2013-11-05 18:54:00,38.6,32.0,30.58,NE,45,1.0,2.0,78,0.00,,,0.00,weatherlink.com 1.10,2013-11-05 23:54:00,
2013-11-05 19:10:00,37.9,31.0,30.59,NW,309,0.0,1.0,77,0.00,,,0.00,weatherlink.com 1.10,2013-11-06 00:10:00,
2013-11-05 19:26:00,36.4,31.0,30.57,NNW,340,2.0,2.0,80,0.00,,,0.00,weatherlink.com 1.10,2013-11-06 00:26:00,
2013-11-05 19:43:00,37.7,31.0,30.57,NW,305,0.0,1.0,78,0.00,,,0.00,weatherlink.com 1.10,2013-11-06 00:43:00,
2013-11-05 19:59:00,38.4,32.0,30.57,WNW,291,1.0,1.0,78,0.00,,,0.00,weatherlink.com 1.10,2013-11-06 00:59:00,
2013-11-05 20:15:00,39.3,33.0,30.56,NW,319,0.0,5.0,77,0.00,,,0.00,weatherlink.com 1.10,2013-11-06 01:15:00,
2013-11-05 20:31:00,39.2,33.0,30.56,SE,146,2.0,3.0,77,0.00,,,0.00,weatherlink.com 1.10,2013-11-06 01:31:00,
2013-11-05 20:48:00,38.5,32.0,30.55,NNW,336,1.0,2.0,78,0.00,,,0.00,weatherlink.com 1.10,2013-11-06 01:48:00,
2013-11-05 21:04:00,38.1,32.0,30.55,WSW,257,0.0,5.0,80,0.00,,,0.00,weatherlink.com 1.10,2013-11-06 02:04:00,
2013-11-05 21:20:00,37.6,33.0,30.54,ESE,111,2.0,5.0,82,0.00,,,0.00,weatherlink.com 1.10,2013-11-06 02:20:00,
2013-11-05 21:36:00,37.5,33.0,30.54,NNW,334,0.0,4.0,83,0.00,,,0.00,weatherlink.com 1.10,2013-11-06 02:36:00,
2013-11-05 21:53:00,36.7,33.0,30.54,NW,313,0.0,2.0,87,0.00,,,0.00,weatherlink.com 1.10,2013-11-06 02:53:00,
2013-11-05 22:09:00,36.0,33.0,30.54,West,271,0.0,2.0,87,0.00,,,0.00,weatherlink.com 1.10,2013-11-06 03:09:00,
2013-11-05 22:25:00,36.1,33.0,30.53,WNW,298,0.0,3.0,88,0.00,,,0.00,weatherlink.com 1.10,2013-11-06 03:25:00,
2013-11-05 22:41:00,36.4,33.0,30.53,WNW,298,1.0,1.0,88,0.00,,,0.00,weatherlink.com 1.10,2013-11-06 03:41:00,
2013-11-05 22:58:00,36.5,33.0,30.52,NNW,339,0.0,1.0,88,0.00,,,0.00,weatherlink.com 1.10,2013-11-06 03:58:00,
2013-11-05 23:14:00,37.2,34.0,30.52,North,9,0.0,3.0,88,0.00,,,0.00,weatherlink.com 1.10,2013-11-06 04:14:00,
2013-11-05 23:30:00,38.0,34.0,30.52,ESE,104,0.0,3.0,84,0.00,,,0.00,weatherlink.com 1.10,2013-11-06 04:30:00,
2013-11-05 23:46:00,38.2,34.0,30.51,SE,127,0.0,0.0,84,0.00,,,0.00,weatherlink.com 1.10,2013-11-06 04:46:00,